Theta_e
332 325 327 324 325 322 318 317 302 309 306 296 295 298 296 304 302 301 300 304 303 309 312 313 310 312 309 306 307 315 315 310 311 304 308 322 336 338 339 341 342 343 343 343 344 345 345 347 348 347 346 346 346 345 346 344 343 343 343 345 346 346 347 347 347 346 345 344 344 343 343 341 341 340 342 340 341 343 342 339 338 339 339 338 339 340 341 340 340 339 339 338 339 339 341 340 340
318 317 319 324 324 321 313 313 306 301 301 295 296 298 299 302 301 299 298 303 305 307 311 311 311 311 312 309 308 312 317 320 322 322 327 334 336 337 340 341 342 342 342 343 344 343 345 346 348 347 348 347 345 344 344 343 343 343 343 344 346 346 346 346 346 346 345 345 344 343 341 341 341 341 341 340 340 340 341 341 341 340 340 340 340 341 342 341 340 340 339 340 340 339 339 339 339
318 317 323 324 320 318 311 313 300 297 295 292 294 297 301 298 300 300 305 306 308 310 312 312 311 310 310 309 306 311 308 323 325 327 327 335 330 333 339 342 342 343 342 342 343 343 345 345 346 348 347 346 345 344 344 344 343 343 343 344 347 346 345 346 346 345 345 345 343 342 342 341 340 340 340 340 341 341 342 342 342 341 341 340 341 341 341 341 341 341 340 341 340 339 340 339 339
327 323 323 322 316 317 307 305 302 297 295 294 293 299 299 300 304 306 308 309 309 310 313 311 308 315 311 307 307 319 318 319 325 326 325 329 329 336 339 341 342 342 342 342 342 343 345 344 346 348 347 346 346 345 344 344 344 343 343 343 346 346 346 345 346 346 346 345 344 343 341 341 340 339 338 344 345 344 343 342 342 341 340 339 338 338 339 339 339 339 339 339 340 340 340 341 340
323 323 325 320 319 311 309 305 300 299 294 294 293 298 300 305 306 307 308 309 310 311 312 312 309 315 314 312 315 310 315 323 325 328 327 333 336 336 338 341 341 341 341 342 342 344 344 344 346 347 347 346 346 345 345 344 343 343 343 344 347 346 346 346 346 346 345 345 343 342 342 341 340 339 339 342 344 345 344 344 343 343 342 341 341 340 341 341 340 340 339 340 341 340 340 341 341
321 319 331 325 313 316 310 301 300 297 298 300 295 297 301 307 306 307 308 310 311 310 313 310 310 306 309 316 320 314 325 318 324 328 331 330 335 338 338 340 340 340 341 342 343 343 344 342 345 347 347 346 345 345 345 344 344 343 343 343 347 346 346 345 345 345 345 344 343 342 341 341 339 338 337 341 342 344 344 344 343 343 343 342 343 343 343 343 342 341 340 340 340 340 340 340 340
320 321 320 321 316 314 304 297 296 297 296 301 298 299 304 306 307 307 306 306 310 310 310 311 311 311 311 314 321 325 332 329 327 330 333 334 337 338 339 338 339 339 341 342 342 344 344 343 347 348 347 346 345 345 345 344 344 343 343 343 345 346 346 345 345 345 345 344 343 342 341 339 339 338 338 338 343 343 343 343 343 342 343 342 342 342 342 342 341 341 340 340 340 339 339 339 340
324 318 316 306 305 305 299 298 299 301 297 300 301 301 306 307 307 306 305 304 303 304 308 310 311 309 308 315 313 325 332 334 333 335 335 335 338 338 339 336 337 338 340 342 343 344 345 343 346 347 347 346 346 345 345 345 344 343 342 342 344 346 345 345 345 344 344 344 343 342 340 339 338 338 338 337 342 343 343 343 343 342 341 341 341 341 340 341 341 340 340 340 339 338 338 339 339
321 315 320 312 302 306 298 297 299 299 298 300 300 306 311 307 306 306 304 305 305 306 307 309 309 306 304 314 315 322 329 334 334 333 335 336 337 337 336 334 338 338 341 343 344 344 344 341 345 346 346 346 345 344 344 344 344 343 343 342 342 344 344 344 344 344 343 343 342 341 340 339 338 337 337 337 337 338 338 338 339 339 339 339 339 339 340 340 341 341 340 340 339 337 338 338 339
316 314 305 306 308 298 297 297 298 298 298 300 299 303 305 306 305 306 304 304 303 306 307 308 308 306 309 310 316 322 324 333 333 332 335 336 337 337 335 335 339 339 341 340 341 343 344 345 342 344 345 346 346 345 344 344 344 343 343 343 342 342 343 343 343 343 343 342 341 340 339 339 338 337 336 336 336 336 338 338 339 339 340 339 339 339 340 339 339 339 339 339 338 337 337 337 338
310 312 315 306 299 296 295 295 297 298 298 300 301 304 306 305 306 305 305 304 305 305 307 309 305 305 305 319 320 328 330 332 331 330 334 336 336 336 333 335 339 340 341 340 341 343 344 343 343 340 343 344 345 346 345 345 344 344 343 343 342 341 341 342 342 343 342 341 340 339 338 338 338 337 336 335 336 337 339 339 340 339 339 339 338 338 338 338 338 339 338 338 337 337 337 337 337
308 305 312 302 297 297 297 296 297 297 299 299 299 303 305 307 307 304 304 303 303 306 306 307 303 307 305 311 317 325 329 330 331 332 334 336 335 335 334 336 338 339 342 342 342 342 343 343 342 343 339 341 342 343 344 344 344 343 343 342 342 342 341 341 342 341 341 340 340 339 338 338 337 337 336 338 339 340 340 339 339 338 338 338 338 338 338 338 338 337 337 337 337 337 337 336 336
310 311 302 299 297 298 297 298 296 298 297 297 300 304 304 305 304 305 304 304 304 304 305 308 309 307 302 314 320 326 326 329 331 333 334 334 334 335 336 335 337 339 341 341 342 341 342 342 342 343 338 335 337 339 340 342 343 343 343 342 342 341 341 341 341 341 341 343 342 341 341 341 340 340 339 339 339 340 342 341 339 339 339 339 338 338 337 337 337 337 336 337 337 336 336 335 335
311 314 309 298 302 300 297 298 297 295 295 299 301 303 305 305 306 307 304 302 302 303 307 309 310 307 310 316 318 320 325 331 331 333 333 334 334 335 336 335 336 338 340 341 340 342 341 339 341 341 340 341 340 336 335 338 340 342 342 342 342 342 341 342 342 341 341 340 339 337 337 339 340 340 339 338 338 337 339 339 339 338 337 337 337 336 336 336 336 336 336 336 336 336 336 334 334
310 311 307 305 299 300 300 295 296 295 296 300 302 303 304 306 306 306 304 302 302 307 308 311 312 305 299 304 312 320 326 330 331 332 333 334 335 335 336 335 338 338 336 337 339 340 340 340 340 342 341 341 341 340 339 337 335 337 338 339 340 340 339 338 337 336 335 335 334 333 333 333 332 333 333 334 334 334 335 332 334 337 336 336 336 336 336 336 336 336 336 336 336 335 334 333 332
315 309 306 303 297 298 299 297 298 296 296 301 302 304 303 305 306 305 303 304 304 310 308 304 310 307 316 319 314 325 329 331 332 332 331 331 334 335 335 334 333 335 335 335 336 337 340 340 340 341 340 340 341 340 340 338 332 333 336 337 336 336 335 334 332 331 328 327 328 329 329 331 329 329 329 329 329 330 330 330 332 337 336 336 336 335 335 335 335 335 335 335 335 334 332 331 331
314 311 301 299 295 297 298 297 297 294 299 301 303 303 301 301 306 304 304 307 304 303 306 307 306 314 323 325 328 330 331 331 330 331 330 330 330 330 331 331 331 332 335 334 334 336 337 339 340 340 340 340 341 341 341 340 334 330 330 329 330 331 331 330 327 324 322 322 324 324 326 330 330 330 330 329 325 325 323 326 330 335 336 336 335 335 335 334 334 335 335 334 332 330 327 327 326
314 303 300 297 298 296 299 298 298 302 300 300 302 303 302 299 302 304 306 304 304 303 303 306 314 316 326 328 330 331 331 330 330 328 327 328 328 328 328 329 330 329 331 332 334 335 335 337 340 340 340 340 341 341 342 341 336 335 335 332 331 328 326 325 328 331 332 328 325 326 329 328 328 329 330 332 328 328 325 324 327 331 334 334 334 334 334 334 334 334 333 332 331 329 326 324 321
305 301 300 296 299 300 302 301 300 299 300 302 303 302 302 301 302 302 300 300 300 300 301 304 309 311 318 328 328 329 329 328 328 327 326 325 326 327 328 328 329 330 331 331 333 334 335 335 340 339 339 339 340 341 341 340 338 337 337 336 334 330 331 332 332 332 331 330 328 329 328 327 327 328 329 330 326 321 324 323 326 329 330 330 331 332 332 331 331 331 331 330 330 329 323 323 322
303 303 298 297 303 301 302 302 301 302 303 302 301 301 302 303 302 303 300 298 299 298 297 300 304 308 314 325 327 327 328 328 328 326 325 325 325 326 327 328 328 329 331 332 333 335 336 335 336 338 338 339 340 339 340 339 337 338 336 335 334 333 333 333 332 331 331 331 330 330 327 329 328 326 326 327 327 325 322 321 322 323 325 326 325 326 328 329 329 328 327 327 327 323 324 325 325
304 301 299 301 301 300 301 302 302 302 303 302 302 301 301 301 302 301 299 297 298 299 301 301 301 310 313 324 326 326 327 326 327 327 325 326 326 326 327 328 328 328 331 332 332 334 335 336 336 336 338 338 339 339 339 338 338 337 337 335 334 332 332 332 332 331 331 331 331 330 329 328 329 328 327 327 327 327 326 325 325 326 326 323 323 324 324 322 322 322 320 320 321 324 325 324 327
305 301 303 301 301 299 301 301 300 301 302 303 301 300 300 303 302 300 299 296 295 299 302 303 304 313 314 320 325 325 325 325 326 327 326 326 326 325 327 328 329 329 329 330 330 333 335 336 337 336 338 338 337 336 337 337 338 337 336 336 334 333 332 331 331 331 331 332 330 329 328 327 327 326 326 326 325 326 326 325 326 327 327 326 324 324 323 321 320 322 320 322 322 324 322 322 322
298 301 301 301 301 299 302 301 299 300 303 301 300 301 302 301 300 301 299 299 301 304 303 306 310 311 316 321 324 323 324 324 325 326 327 326 326 327 328 328 328 328 328 328 330 331 333 335 336 336 337 338 338 337 336 335 336 337 337 336 334 332 332 331 330 331 330 330 329 328 327 326 325 324 325 324 325 324 324 323 323 323 325 324 324 323 321 322 321 322 322 323 322 320 321 321 321
301 298 300 300 301 300 300 298 299 300 302 301 303 302 300 299 297 300 299 302 302 302 303 305 314 316 317 319 321 321 324 325 325 327 328 328 328 328 328 329 329 330 329 329 330 330 330 332 335 336 336 337 338 337 336 335 335 336 336 334 335 331 331 330 329 329 330 330 329 327 326 326 325 324 324 325 324 325 323 324 324 322 322 322 324 320 320 319 320 319 319 320 320 320 321 321 320
299 297 302 300 300 300 299 298 298 300 299 299 301 300 299 300 299 301 299 301 302 304 306 305 312 316 320 320 320 320 324 325 325 327 329 329 330 330 329 329 330 331 329 330 330 330 331 332 333 335 335 336 337 337 335 335 336 336 335 334 333 331 332 330 330 331 330 329 329 328 326 325 326 325 324 324 323 323 324 323 322 322 322 321 322 319 321 319 318 319 319 319 319 318 319 319 320
300 301 300 300 300 300 299 299 300 299 300 300 298 300 299 298 301 298 300 302 304 306 306 306 308 312 316 317 320 321 323 324 325 326 327 328 329 329 329 329 330 330 331 331 330 330 331 333 332 333 335 336 336 336 335 334 335 335 335 334 334 332 331 332 330 330 330 329 327 328 327 326 325 324 325 323 323 322 322 322 321 320 321 320 320 319 319 319 318 317 318 318 318 317 317 320 319
301 300 300 299 299 299 301 300 299 301 301 299 298 298 298 299 299 295 301 302 304 305 306 306 307 306 308 314 316 318 321 322 324 326 326 327 328 328 328 330 329 329 331 330 331 331 331 332 332 332 333 334 335 335 334 334 335 334 335 336 334 333 333 332 330 330 330 330 328 328 327 327 326 325 325 324 323 321 321 321 319 319 319 319 320 320 320 319 319 318 318 317 316 316 316 317 318
301 300 299 299 300 299 300 299 298 299 298 299 300 298 298 299 301 296 302 302 303 302 302 305 304 304 306 309 313 315 317 320 322 324 324 325 326 327 328 329 329 329 330 330 331 332 332 332 332 332 334 334 334 335 334 334 334 334 335 336 334 334 334 332 331 330 327 327 328 330 329 327 326 325 325 325 323 322 321 320 319 319 318 318 319 318 318 318 317 317 317 318 317 317 317 316 317
300 300 295 297 298 297 299 298 299 300 298 299 301 298 295 296 295 300 300 302 302 301 301 302 303 303 306 307 310 312 314 317 320 321 324 326 327 329 328 331 331 329 330 332 332 332 332 332 333 333 333 333 334 335 335 335 334 335 335 335 334 335 334 333 332 329 328 329 330 331 329 328 327 325 324 325 323 322 320 320 319 318 319 319 317 318 317 316 317 315 316 316 315 315 315 315 316
301 299 297 295 295 294 298 300 299 299 299 299 299 287 291 295 299 300 300 300 300 300 299 300 302 302 302 304 307 311 314 315 319 321 323 325 328 329 329 330 331 330 329 330 331 332 333 334 334 334 333 333 333 334 335 335 334 335 335 336 335 335 333 332 332 331 330 329 329 329 330 329 326 326 324 324 323 321 321 320 318 318 317 317 316 317 316 315 315 314 314 315 315 313 313 313 313
294 297 298 293 291 290 298 298 297 297 299 299 300 289 290 296 299 300 300 301 300 298 298 298 301 302 301 302 305 310 313 314 318 321 323 325 328 328 329 330 330 330 327 328 330 331 332 333 334 334 331 332 333 334 332 334 334 334 335 335 335 335 333 333 332 333 331 330 329 328 328 328 327 326 324 324 325 323 320 319 318 318 318 317 316 316 316 314 315 316 315 315 315 314 313 313 314
295 291 288 294 291 295 296 300 297 295 297 299 297 290 290 295 297 299 300 299 299 297 297 298 300 301 302 302 306 309 312 314 317 322 323 324 326 325 326 327 329 329 328 328 329 331 332 332 332 332 331 332 333 334 333 332 334 333 334 331 334 336 334 334 332 332 332 331 329 328 328 328 328 326 324 325 325 324 320 320 318 318 317 317 316 315 316 315 315 315 315 315 313 312 313 313 314
293 290 290 289 291 292 294 295 298 299 297 298 295 289 292 294 297 298 300 300 298 297 297 298 300 301 301 302 304 306 307 312 314 317 321 323 324 325 325 325 327 328 328 328 329 330 331 331 331 331 331 332 333 334 334 332 332 332 333 332 333 335 334 333 332 331 332 332 329 328 328 328 328 328 327 325 323 322 321 320 318 318 317 316 315 314 314 315 314 315 314 314 313 311 312 311 312
288 292 289 292 290 291 289 295 297 299 296 292 294 291 292 295 295 296 298 298 298 296 297 298 299 298 300 300 302 304 304 306 312 315 317 321 322 324 326 324 326 328 328 328 330 331 331 331 331 331 331 332 332 334 334 334 333 331 330 332 329 334 334 333 332 332 331 331 330 329 328 328 328 328 328 327 325 324 321 319 318 319 317 315 314 314 314 314 313 314 312 312 314 313 311 311 311
287 288 287 290 291 292 291 290 294 297 296 294 292 291 293 295 297 297 298 298 298 297 297 297 297 298 298 299 299 300 301 303 307 313 316 317 321 323 325 326 326 328 329 329 330 330 330 330 330 330 330 331 331 332 333 333 332 331 330 329 330 332 334 333 332 331 331 330 329 329 329 328 327 328 327 326 324 323 320 319 318 317 316 315 315 314 313 313 312 312 312 311 312 313 311 310 311
292 292 290 291 289 290 290 294 296 297 292 291 292 292 293 295 296 297 298 298 298 297 297 297 297 297 298 299 299 299 300 301 304 308 314 316 318 321 323 326 327 328 329 330 329 330 330 330 331 331 330 331 331 330 330 330 330 328 328 326 326 328 332 331 332 332 331 330 329 329 329 329 328 326 326 325 323 322 320 319 318 316 315 315 314 313 312 311 311 311 310 310 309 310 311 311 311
294 293 291 290 291 293 294 294 296 297 294 291 292 293 293 294 294 296 298 297 296 296 296 297 298 298 299 298 299 300 301 301 304 306 310 314 316 319 321 323 324 326 327 328 328 329 330 330 330 329 331 331 330 329 329 328 327 326 326 326 326 326 328 331 332 332 331 331 330 330 330 330 329 328 326 325 323 321 321 319 318 316 315 315 314 313 313 312 312 312 311 311 311 311 311 311 310
293 294 291 290 292 289 294 293 294 296 293 290 292 292 292 294 295 296 297 297 296 297 297 297 298 299 299 300 300 300 301 306 308 307 308 310 314 316 319 320 320 322 323 326 327 328 329 330 330 330 330 331 331 330 329 328 327 327 326 325 325 324 327 327 328 330 331 331 330 330 330 330 328 327 325 326 324 323 321 320 318 317 315 314 314 313 313 311 312 312 312 311 313 312 311 311 310
296 292 292 291 292 292 294 293 295 295 293 289 291 290 292 294 295 296 297 298 298 299 299 299 299 299 300 301 301 301 301 302 306 307 308 308 311 315 317 318 320 321 322 323 325 326 327 328 329 330 330 330 330 330 329 328 328 327 327 325 325 322 325 328 329 329 330 330 330 330 329 329 329 328 327 327 326 324 322 321 320 319 317 314 312 312 312 312 312 311 312 312 310 311 311 312 311
292 292 289 287 293 288 288 292 294 294 291 292 290 289 292 295 296 296 298 298 299 299 300 300 300 299 300 300 301 302 302 303 306 307 307 307 308 310 311 313 317 318 318 319 321 323 326 326 327 328 329 329 329 329 327 329 329 327 327 327 327 326 325 325 327 328 331 331 329 330 331 331 330 329 329 326 325 323 322 321 321 320 317 314 312 311 311 311 311 312 312 311 311 308 308 308 309
294 296 293 291 292 292 292 290 292 293 294 294 290 289 289 292 292 293 296 299 298 299 299 300 300 301 301 302 303 303 302 304 305 306 306 306 307 307 307 309 311 314 316 318 319 321 324 324 326 327 328 329 329 327 326 327 327 327 327 326 327 326 324 326 323 322 326 329 329 329 330 330 330 329 328 326 324 323 322 322 322 321 317 313 312 311 311 312 311 311 310 309 309 310 308 307 308
291 296 297 295 296 292 292 292 290 289 288 292 292 283 281 289 291 293 294 294 296 298 297 298 299 301 302 302 303 304 308 306 305 306 306 305 306 306 306 306 306 308 310 314 319 320 320 322 324 325 326 327 328 327 327 327 326 326 325 324 322 321 321 323 323 323 324 324 327 329 329 329 328 327 327 327 326 324 324 324 324 321 317 314 313 313 313 312 311 310 310 310 309 310 311 309 307
288 291 298 296 295 294 293 292 292 283 281 291 292 282 279 289 291 292 293 294 294 296 296 297 298 299 300 301 302 302 303 303 305 305 305 304 304 305 306 306 306 306 307 308 312 317 319 320 322 324 325 325 326 327 327 325 326 326 326 325 323 321 321 321 321 325 326 325 326 328 328 328 328 327 327 327 327 325 325 324 322 320 318 317 316 315 314 313 313 312 310 310 311 310 309 308 308
287 295 299 297 296 294 294 294 291 288 291 292 292 291 282 282 289 294 294 292 293 293 295 297 297 297 298 300 301 300 301 301 302 303 303 303 303 304 305 306 306 306 306 308 309 313 317 319 321 322 323 323 325 326 326 326 326 325 324 323 322 321 321 320 322 323 324 324 325 324 328 328 328 327 328 328 327 326 323 322 321 320 319 319 315 315 314 313 313 312 311 311 310 310 309 309 309
292 294 298 295 296 296 295 293 288 289 284 282 287 291 282 280 287 293 292 291 291 292 293 296 298 298 297 299 300 300 301 302 303 303 303 303 302 302 303 303 304 305 306 306 308 310 313 316 318 320 321 321 323 324 325 325 324 325 324 323 320 321 322 321 321 322 321 319 319 319 321 324 326 326 327 326 325 324 321 322 323 321 319 318 315 315 314 314 313 313 312 310 309 308 308 309 309
293 297 299 298 298 297 295 289 288 287 283 279 284 289 280 281 288 290 291 289 290 292 294 294 296 297 298 299 299 301 302 302 302 303 303 304 305 304 303 303 303 303 304 305 305 307 309 311 315 318 319 320 322 323 323 324 323 322 322 321 320 319 320 320 319 320 320 319 319 318 319 321 324 322 322 324 325 325 325 324 323 322 321 320 316 317 316 314 314 313 313 311 309 308 308 308 308
297 297 295 293 292 290 288 288 285 284 279 280 290 291 286 279 286 288 288 291 291 292 293 295 298 298 300 300 300 300 300 301 302 303 303 304 304 304 302 301 302 304 303 303 304 304 305 308 311 315 318 319 320 322 322 323 322 321 321 320 320 319 317 317 316 317 318 319 321 322 322 323 324 325 326 327 327 327 326 323 323 323 323 321 318 317 317 316 315 314 313 310 309 310 309 309 308
298 293 290 289 287 287 285 283 283 278 276 283 282 288 289 277 281 292 292 293 293 292 293 294 296 299 299 299 298 298 298 299 300 300 302 303 302 302 301 300 301 304 303 302 303 304 304 306 307 310 312 315 317 320 320 321 321 319 318 319 319 318 318 318 317 316 315 316 316 318 321 321 323 324 325 324 326 326 326 324 321 323 322 322 320 320 319 317 316 314 313 312 312 311 311 309 309
294 291 289 283 281 281 277 281 276 276 276 281 282 284 282 283 287 290 291 293 293 292 295 296 297 298 299 299 300 299 299 299 300 302 304 303 302 301 300 300 304 303 303 302 305 305 305 305 307 309 310 312 316 317 317 317 317 317 317 318 317 318 318 317 316 315 313 314 314 314 313 314 316 317 317 320 319 323 323 322 322 322 321 320 320 319 318 316 315 313 313 312 312 311 311 310 309
291 288 283 281 278 276 273 276 279 280 280 281 282 284 280 284 287 293 294 296 294 294 296 295 295 296 297 300 300 300 301 300 301 302 303 303 304 305 304 305 305 304 303 305 305 305 306 307 306 308 309 311 313 314 315 314 315 315 315 315 316 317 316 316 316 316 313 313 315 314 314 315 317 317 316 315 318 317 319 321 322 322 322 322 320 320 319 318 316 314 313 312 312 313 312 311 310
291 295 290 283 283 278 273 277 275 276 278 280 282 280 278 279 284 291 293 293 292 294 294 296 297 297 297 298 298 299 300 301 302 303 304 304 305 306 306 306 305 305 305 306 305 305 306 306 308 308 309 310 312 312 312 313 313 314 313 313 313 314 314 314 314 316 316 315 315 316 317 317 316 316 317 317 318 318 319 320 320 320 320 320 319 319 318 318 316 315 313 313 313 313 312 311 310
290 292 293 287 283 286 280 282 282 278 277 278 278 278 282 286 292 293 295 293 294 293 295 294 295 296 296 298 298 299 300 301 302 304 304 304 303 304 305 306 306 306 306 305 306 306 307 308 308 309 310 309 309 309 309 311 311 313 312 312 312 313 314 315 315 316 318 318 319 318 318 318 317 316 316 317 316 315 315 316 318 319 319 318 318 318 317 317 316 315 313 311 311 312 310 309 309
288 289 283 287 291 286 281 280 282 280 279 276 281 281 285 290 291 293 293 293 293 292 293 293 293 295 296 297 298 301 301 301 303 305 304 303 303 304 304 304 304 305 305 305 307 307 307 309 309 310 308 307 308 307 308 308 310 311 313 316 315 316 317 316 316 315 316 317 317 318 317 316 316 316 317 316 314 315 314 312 312 312 312 314 315 315 313 311 313 313 311 310 310 310 310 309 309
289 282 288 292 293 292 285 279 280 279 275 277 281 278 279 283 280 290 292 291 291 290 291 292 294 295 296 297 299 301 301 300 300 300 303 304 304 303 304 304 305 305 306 306 307 307 307 308 310 309 308 308 306 308 309 312 315 315 316 316 317 317 316 317 317 317 317 316 317 316 316 314 313 313 312 310 309 308 308 308 310 309 308 309 308 308 308 308 308 308 309 309 309 309 308 307 308
291 289 296 289 281 281 283 282 275 275 274 276 279 279 279 281 284 288 288 288 290 291 291 291 294 295 294 297 301 299 298 299 300 301 302 303 303 303 303 303 305 305 305 306 307 307 307 308 310 309 308 308 311 313 314 315 316 316 316 316 316 316 316 316 316 317 317 316 315 314 314 312 310 307 308 307 305 305 304 303 303 303 303 304 304 303 303 303 305 303 306 305 306 306 304 305 306
296 294 289 292 286 284 280 281 281 281 275 276 276 278 276 286 285 289 290 290 291 291 292 291 291 293 294 298 299 298 299 299 299 301 302 303 303 303 303 303 303 303 304 304 305 305 306 306 308 309 309 309 311 312 312 313 314 314 315 315 315 315 315 316 316 315 313 312 312 312 310 308 308 305 304 304 301 301 301 301 300 301 300 300 300 300 299 300 299 300 300 302 305 304 305 305 304
284 286 285 287 287 288 285 285 282 279 277 275 275 274 279 287 291 289 291 291 292 293 294 295 295 297 298 300 301 300 300 299 300 301 301 302 302 301 301 301 301 300 301 302 304 305 304 305 306 307 309 308 308 309 310 311 312 312 312 313 313 313 312 312 311 309 308 307 306 305 304 303 302 301 299 299 299 299 299 299 298 298 298 298 298 298 297 298 297 297 297 298 297 297 298 299 300
289 288 286 288 285 282 280 279 285 282 281 276 276 274 280 291 291 292 291 291 293 295 295 296 295 295 297 298 299 300 298 298 300 301 301 301 300 300 299 299 298 300 300 301 303 303 304 304 305 305 306 306 306 306 307 307 307 308 307 307 306 306 306 305 305 304 303 303 302 301 300 299 298 298 297 297 297 298 297 297 297 297 297 295 296 298 296 296 296 295 295 300 299 297 298 301 300
Wind_Speed
9 8 4 4 4 4 4 2 2 1 1 5 4 1 2 5 5 5 5 4 5 3 3 6 4 5 5 2 7 11 8 6 2 1 1 3 4 4 10 11 12 12 11 9 8 7 7 10 11 12 12 12 11 12 11 11 10 10 10 12 12 12 12 12 12 14 14 14 14 14 14 14 13 14 14 14 16 16 15 15 15 16 17 17 17 17 18 18 18 18 18 18 17 17 17 17 16
7 7 7 5 3 3 1 2 1 3 3 4 3 7 3 4 4 6 6 4 5 3 1 4 5 3 1 5 2 6 12 9 8 7 7 7 5 5 9 10 12 13 10 9 8 8 7 8 11 12 12 12 12 11 11 11 11 10 9 11 13 12 12 11 12 14 15 14 14 14 14 13 13 14 15 14 14 15 15 15 16 16 17 16 17 17 17 17 18 18 18 17 17 17 16 16 15
6 7 7 4 3 2 4 1 2 3 4 2 4 6 4 4 4 7 7 10 9 5 3 5 4 1 1 3 4 6 5 11 13 9 7 9 8 7 8 9 9 12 11 8 9 8 7 7 11 12 13 12 12 11 11 11 11 10 9 11 14 12 11 11 11 13 14 13 13 13 13 14 14 13 13 14 14 14 15 15 15 16 16 16 16 17 17 17 17 18 17 17 17 17 16 16 14
5 6 4 4 2 2 2 1 3 3 5 5 5 4 4 4 10 11 10 9 7 4 3 3 2 2 5 7 4 9 7 6 7 10 8 7 4 9 9 9 10 9 8 7 8 8 7 9 11 12 12 12 12 11 11 10 11 10 9 9 14 12 11 11 11 12 12 14 14 14 13 13 14 13 13 15 15 15 15 15 15 15 15 15 15 16 16 16 16 16 16 16 16 16 16 15 15
4 4 2 3 1 2 1 2 3 3 2 4 4 3 4 10 10 9 7 6 5 4 3 3 2 2 2 2 4 2 5 8 8 5 6 5 10 7 8 10 9 8 8 9 9 8 7 12 12 11 12 12 12 11 11 10 10 10 10 10 14 12 11 11 12 11 12 13 14 13 13 13 12 12 12 14 14 15 14 15 15 15 15 16 15 15 15 15 16 16 16 16 16 16 16 16 14
6 3 2 1 1 1 1 2 3 3 3 1 3 3 6 10 10 9 7 5 4 4 1 4 1 4 1 5 3 3 2 2 6 5 9 6 9 9 7 8 10 8 7 8 10 7 7 12 12 11 12 12 12 11 10 10 10 10 10 11 14 13 12 12 12 11 12 13 13 13 13 13 13 11 11 13 13 13 14 15 15 14 14 15 16 15 15 16 16 16 16 16 16 15 15 14 13
2 2 1 1 3 1 2 4 4 2 4 2 4 3 8 9 9 10 8 5 1 2 3 1 2 5 5 2 6 4 7 4 5 6 6 8 8 8 7 7 9 9 9 10 8 8 8 12 12 11 11 11 11 11 10 10 10 9 9 10 12 12 12 12 12 11 11 13 13 13 13 12 12 12 11 11 13 13 13 14 15 14 14 15 15 15 15 16 16 16 16 15 15 15 15 13 13
0 1 2 3 2 1 3 4 6 0 1 4 3 4 10 10 8 7 7 4 3 2 1 5 1 2 3 7 4 1 7 9 11 13 11 9 8 8 5 8 9 8 9 10 9 7 9 11 12 11 11 11 11 11 10 10 9 9 9 9 12 12 13 13 11 11 12 13 13 13 12 12 11 11 10 10 12 13 13 14 13 14 14 14 14 14 14 14 15 15 15 15 15 14 14 13 12
1 1 2 0 3 2 3 6 3 4 4 2 3 2 8 8 7 7 6 3 6 3 5 2 1 1 3 7 6 4 2 8 11 12 11 10 10 7 4 7 9 8 9 10 9 7 6 10 12 11 10 11 11 11 10 10 10 9 9 9 10 12 11 11 12 11 12 13 13 12 11 11 11 10 10 10 10 10 10 11 12 12 13 13 14 14 14 14 14 14 15 15 14 14 13 12 11
2 2 1 1 2 4 4 5 2 2 5 4 4 3 4 5 5 7 4 6 4 5 5 4 2 1 7 9 7 4 3 9 11 10 9 10 9 6 5 7 10 10 12 10 9 7 6 10 11 11 10 10 10 10 10 10 9 10 9 10 10 11 11 11 11 11 12 12 12 11 10 10 10 10 10 10 9 10 11 11 12 12 12 12 12 12 13 13 13 13 13 14 13 12 12 11 10
2 3 3 1 3 3 5 6 4 2 5 3 4 3 3 3 5 6 4 5 4 4 4 2 2 3 3 5 4 2 6 9 10 12 10 10 6 5 5 7 8 9 12 10 9 7 7 6 10 10 9 9 9 9 10 9 10 10 10 10 10 9 10 11 11 11 11 10 10 9 10 9 9 10 10 9 9 9 11 11 11 11 12 12 12 12 12 12 12 12 12 12 12 12 11 10 9
2 3 1 2 5 5 4 5 6 5 5 5 3 3 1 1 2 4 5 7 4 7 3 5 1 3 3 5 2 4 6 7 9 10 10 9 6 5 5 7 7 9 11 10 10 8 7 7 6 8 9 9 9 9 8 8 9 9 10 10 10 10 9 10 10 10 10 9 9 8 8 9 9 10 9 10 13 13 11 10 11 12 12 12 12 11 11 11 11 11 11 11 11 11 11 9 9
2 3 3 2 4 4 3 1 4 5 4 3 6 3 2 3 3 3 5 5 4 5 3 5 2 2 1 3 3 6 8 7 9 9 10 7 5 3 4 7 6 8 10 10 11 9 8 7 7 6 6 9 9 9 8 8 8 8 8 9 9 10 9 9 8 8 9 9 10 11 11 11 11 10 10 12 12 11 13 14 13 13 13 12 12 11 11 11 10 10 10 10 11 11 10 9 8
2 2 2 3 4 2 1 2 4 3 3 5 4 5 3 3 2 1 4 4 5 3 2 4 0 0 5 6 4 6 7 8 10 9 8 8 6 4 4 6 5 8 7 7 9 10 8 7 7 7 7 6 6 7 9 9 8 8 8 8 9 8 9 8 8 9 9 9 9 10 10 9 9 9 9 10 10 10 10 11 10 12 11 11 11 10 10 10 10 10 10 10 10 10 10 8 8
2 4 1 1 3 3 0 2 4 4 2 6 4 7 4 3 1 1 1 4 4 2 1 4 1 1 0 3 5 8 10 11 10 8 8 7 6 5 4 5 3 7 5 5 7 9 9 8 8 7 7 6 7 5 4 7 9 9 8 8 9 9 8 9 9 9 9 9 10 10 10 10 10 10 9 10 10 10 10 9 9 9 11 11 11 10 10 10 10 10 10 11 10 10 9 8 8
1 3 1 1 4 1 1 1 3 3 3 4 6 6 4 1 3 1 2 2 1 2 0 0 2 2 2 6 7 12 13 12 9 9 9 9 6 4 5 5 3 6 5 4 6 5 7 7 8 7 6 6 6 6 6 5 8 9 9 9 9 10 9 9 9 9 9 9 9 10 10 8 7 7 10 8 11 10 10 8 10 9 10 11 10 9 9 9 9 9 10 10 10 10 9 9 8
1 0 2 2 5 5 2 3 4 2 6 4 5 7 4 3 0 2 1 0 4 2 1 4 2 2 6 5 12 16 13 11 9 9 8 8 6 5 4 5 4 5 4 4 5 5 6 8 8 7 6 7 7 6 7 6 7 9 7 9 10 10 9 9 9 9 8 7 7 7 7 5 5 5 6 5 9 7 9 10 10 10 9 9 9 9 8 8 8 9 10 10 9 9 8 8 7
0 1 2 3 3 5 4 4 4 5 6 5 6 7 6 5 2 1 0 1 1 3 3 4 9 8 5 5 9 12 13 12 10 10 9 9 6 6 5 4 5 4 5 5 5 6 4 7 8 6 5 8 6 5 5 6 6 7 6 5 6 7 8 8 6 4 5 3 5 5 4 5 5 3 5 6 6 6 7 10 10 10 11 10 10 10 10 9 9 9 8 6 8 7 7 5 4
2 2 1 3 3 3 2 4 5 4 6 8 5 5 5 6 7 3 2 3 3 3 3 5 7 5 3 5 10 10 11 11 11 9 11 11 10 10 8 6 6 6 5 5 5 7 5 5 8 8 6 7 8 5 5 6 7 5 6 5 5 6 6 5 4 5 4 4 3 4 4 6 3 4 4 6 7 9 8 9 10 11 11 10 9 9 9 9 9 7 5 4 5 6 2 4 3
4 2 2 5 2 2 6 6 4 6 11 9 6 5 2 6 5 3 3 5 5 5 5 5 7 7 7 7 8 10 10 10 10 9 11 10 9 11 10 8 8 7 7 6 6 5 7 5 7 8 6 8 8 6 6 6 6 6 6 5 6 6 5 4 4 5 4 5 4 5 3 6 6 5 9 12 9 6 6 9 10 10 11 10 10 6 6 6 6 5 1 2 3 3 3 3 4
3 3 3 2 3 3 4 7 4 4 5 7 6 4 2 6 3 4 4 3 6 5 6 9 8 12 11 10 10 9 10 10 10 9 10 10 7 7 8 9 8 6 6 6 6 6 7 5 5 6 6 6 8 8 7 7 7 6 6 6 6 6 6 5 4 5 4 7 6 4 3 5 6 6 5 6 6 6 6 5 5 5 5 4 7 4 5 3 3 3 1 2 3 4 5 4 5
3 5 1 3 6 4 4 6 6 3 2 7 6 7 3 4 5 4 4 4 3 4 7 10 9 14 14 12 11 9 9 10 11 10 11 11 10 9 8 8 8 6 7 7 7 7 8 8 7 5 7 5 6 7 7 8 7 6 5 6 6 6 6 5 5 5 4 6 4 2 6 3 5 6 4 4 4 7 6 6 6 6 5 5 4 3 5 4 3 4 3 4 4 6 2 1 3
3 4 0 4 4 2 1 2 4 4 3 6 5 4 5 4 3 4 4 5 1 2 5 6 2 14 15 14 13 10 10 11 11 11 11 11 10 8 9 8 9 9 7 7 7 6 8 8 8 6 7 7 6 5 6 7 7 7 6 6 6 6 6 5 6 5 4 4 4 3 5 5 4 6 5 5 4 6 6 7 7 6 6 5 5 4 4 5 5 5 5 5 6 1 2 2 3
3 2 2 3 5 4 5 2 4 4 4 3 0 5 4 4 3 4 5 1 6 5 5 4 9 14 12 13 12 13 13 13 13 12 11 12 12 11 8 9 8 6 6 7 7 6 8 8 8 8 7 7 7 5 6 6 5 5 7 7 6 6 7 6 6 6 5 6 4 3 3 6 4 7 6 5 4 5 5 4 5 4 6 6 5 2 4 3 1 2 3 2 2 2 0 1 1
5 5 1 1 4 2 3 2 3 3 4 2 4 3 3 2 0 0 5 3 5 4 4 4 7 13 11 11 11 11 11 10 11 10 8 7 8 8 6 6 9 9 8 8 7 7 8 8 8 9 8 8 7 6 6 6 6 5 6 6 6 6 6 6 5 5 6 6 5 3 6 5 6 6 6 5 3 4 4 4 4 4 5 5 6 3 5 3 2 4 1 1 1 1 3 2 2
6 2 3 2 3 3 3 3 2 1 2 1 3 1 5 3 1 2 4 5 6 6 6 5 5 7 10 10 11 11 10 11 10 10 11 7 7 9 8 6 6 10 10 9 8 7 8 9 8 9 9 9 8 7 6 6 7 6 6 6 6 6 5 6 4 5 5 6 4 3 4 5 5 6 6 5 5 4 4 4 3 3 5 3 4 3 4 4 5 3 2 3 3 3 2 5 4
2 5 3 3 3 3 1 1 2 0 1 1 2 3 2 3 4 4 6 4 10 7 7 5 7 5 5 8 8 9 11 11 12 10 8 7 7 9 9 7 6 6 9 9 8 7 7 9 7 8 8 8 7 7 6 6 6 6 6 7 5 6 5 6 4 3 5 5 5 4 3 4 3 4 6 6 5 5 4 4 3 3 3 3 4 4 5 5 4 5 4 3 3 2 3 3 4
2 5 6 4 1 3 1 3 3 2 1 1 1 1 4 2 0 5 1 5 9 8 6 6 5 6 5 6 8 7 9 9 9 8 12 11 9 8 9 9 7 5 8 9 8 7 8 9 8 7 8 7 8 7 7 6 6 7 6 7 6 7 6 5 6 5 4 5 4 5 4 3 4 3 5 6 6 5 4 5 4 4 4 4 4 4 4 5 2 2 2 2 1 3 4 3 4
3 4 3 3 3 2 2 3 3 1 0 2 1 1 0 2 4 11 5 3 4 6 6 7 6 5 7 6 6 6 7 8 8 8 10 9 8 8 10 10 10 7 5 7 8 9 9 11 10 8 7 6 7 8 7 6 6 6 6 7 6 7 6 6 6 6 5 5 4 3 4 4 5 3 2 5 5 6 5 4 4 4 4 4 4 4 4 3 1 1 2 1 1 1 1 1 2
2 3 2 3 3 2 4 3 4 1 1 2 1 1 5 10 16 8 6 6 4 4 5 6 6 5 5 6 6 6 5 6 8 9 8 8 9 9 9 9 10 9 7 6 7 9 8 7 8 7 8 8 7 6 7 7 5 6 6 7 6 7 6 6 6 6 6 6 6 4 3 3 3 5 2 3 4 4 4 5 4 4 4 4 4 4 4 3 3 3 3 3 3 3 3 3 2
2 3 2 2 5 3 6 3 4 2 1 2 0 2 3 4 8 6 5 6 7 5 5 5 5 5 5 5 6 7 7 6 8 9 8 8 9 8 10 8 9 8 6 5 8 8 8 7 8 8 9 8 7 6 6 8 6 6 6 6 7 7 6 6 5 6 7 6 6 6 4 3 3 3 3 3 4 4 4 4 4 5 4 4 4 5 4 3 3 4 4 4 4 5 4 4 4
2 4 3 2 6 0 3 1 8 4 1 4 2 3 6 2 3 3 3 4 5 5 5 5 5 5 5 5 5 6 6 6 6 8 9 9 9 8 9 9 10 9 9 8 7 8 9 7 8 8 10 9 8 9 5 5 7 6 6 6 6 7 6 7 6 6 6 5 6 6 6 6 4 4 3 3 4 6 5 6 6 5 4 5 5 5 5 5 5 4 4 4 4 4 5 5 4
3 5 2 4 4 3 2 3 2 3 4 1 5 3 3 1 1 3 1 1 2 4 5 6 6 6 6 6 5 5 5 6 6 7 8 9 8 7 9 9 10 11 9 8 8 8 8 8 9 8 12 11 9 9 7 4 4 6 6 7 6 8 7 6 6 6 6 6 7 6 7 7 6 5 4 3 3 4 5 6 6 5 5 6 6 5 6 5 4 4 4 5 4 4 5 4 4
4 3 2 4 7 4 2 1 2 2 3 4 4 3 5 1 4 4 4 5 5 5 5 5 6 5 6 5 6 7 7 7 9 9 9 9 8 9 9 9 9 10 9 9 9 10 10 9 9 9 9 11 9 10 9 7 5 5 6 6 6 7 7 6 6 6 5 5 7 8 8 8 9 9 8 6 4 4 4 5 5 6 6 6 6 5 6 5 4 4 4 4 5 4 4 4 4
4 4 3 2 3 5 4 5 6 5 3 2 5 5 9 8 4 4 6 5 6 6 7 6 5 5 5 5 5 6 6 8 9 9 10 9 9 9 7 9 9 10 9 10 9 9 8 8 8 9 8 10 9 10 10 8 7 5 4 4 6 6 7 6 6 6 6 5 6 7 9 8 8 8 7 7 7 5 4 5 5 5 6 6 5 5 4 5 4 4 4 4 4 4 4 3 4
7 9 7 4 5 5 2 1 1 7 4 3 5 8 11 10 7 5 5 7 8 8 6 6 6 5 5 5 5 5 6 7 7 8 10 10 8 9 8 8 8 8 9 10 9 10 10 8 7 8 8 10 8 8 9 8 7 6 6 5 5 6 7 8 7 7 6 7 6 7 8 8 8 7 7 6 6 6 5 5 5 4 5 6 5 5 5 6 6 5 4 4 4 4 4 4 3
7 8 7 6 5 1 3 3 2 0 1 7 8 7 6 6 6 6 9 7 6 5 7 7 5 5 5 5 6 7 7 7 6 8 9 10 10 9 9 8 8 8 8 10 9 9 11 11 10 11 10 9 9 9 9 9 9 8 6 7 7 6 7 8 8 7 7 7 8 8 8 7 7 8 7 6 6 6 6 5 5 4 5 6 6 7 6 5 5 6 5 5 5 4 3 3 3
3 3 8 6 6 2 1 2 2 2 1 4 7 7 8 8 7 6 4 9 9 9 8 8 8 7 6 7 7 7 7 3 5 6 6 8 9 8 8 8 8 9 7 9 10 10 10 10 11 11 10 9 10 10 9 9 9 9 9 9 7 7 7 7 7 8 8 7 8 8 8 7 7 7 8 7 7 7 7 6 6 7 6 6 6 5 5 5 5 5 4 4 4 6 4 4 4
1 2 3 1 2 4 2 3 1 1 2 5 2 4 7 7 6 5 7 9 6 9 11 10 9 8 8 8 8 8 6 6 6 7 7 7 9 9 9 9 9 11 11 12 11 10 10 10 9 9 10 10 9 10 9 9 7 7 7 6 8 5 5 7 6 6 7 8 9 9 8 8 8 7 7 8 7 7 7 7 7 7 7 7 6 6 5 5 6 6 6 6 4 3 5 3 6
1 1 1 2 2 5 1 1 2 1 1 1 3 4 7 6 6 8 8 9 9 7 9 9 10 11 11 10 9 9 8 8 8 8 9 8 9 9 8 8 9 8 9 8 9 10 10 9 9 9 10 10 9 10 9 8 8 6 5 5 5 5 5 5 7 8 8 8 8 8 8 8 8 8 7 8 7 7 7 7 6 6 7 7 7 7 5 5 5 5 6 6 5 4 4 6 5
2 1 1 1 2 1 2 3 2 1 2 1 2 5 7 6 8 10 10 12 9 7 8 8 8 9 9 7 7 8 10 10 9 8 8 9 8 9 10 10 9 10 9 10 10 11 9 12 11 11 9 11 10 9 9 8 8 7 7 5 6 5 2 6 5 6 7 8 8 8 8 7 7 8 7 8 8 7 6 6 6 5 6 6 6 6 6 8 7 6 6 6 6 7 6 4 4
3 3 2 2 1 8 5 5 5 1 2 3 3 1 4 6 13 13 7 6 10 9 8 9 9 7 6 7 7 5 5 5 9 10 10 10 10 8 7 7 7 7 8 8 10 11 9 9 10 9 8 8 9 10 10 8 9 9 9 8 8 8 7 7 9 9 7 7 8 7 8 8 7 5 5 6 7 6 7 7 6 6 6 6 6 7 6 5 6 7 8 8 7 7 8 6 5
3 3 3 2 6 7 6 5 1 1 1 1 1 5 5 6 4 4 6 4 8 3 6 7 6 6 6 8 7 7 7 6 2 1 2 6 6 7 8 9 9 9 8 6 5 7 8 8 9 10 10 8 8 9 10 8 8 8 10 10 8 9 8 6 4 5 7 6 6 8 8 8 8 9 8 7 6 7 7 7 7 6 6 5 6 6 6 7 7 8 6 7 8 7 5 7 8
2 1 1 4 5 6 5 4 2 0 1 1 0 1 1 5 8 6 1 5 4 5 6 8 8 7 8 9 9 7 7 6 6 6 5 4 4 6 8 8 8 9 7 6 6 5 7 8 9 9 8 8 7 8 11 10 9 9 8 8 8 8 8 7 7 6 6 6 7 7 8 8 8 8 8 8 7 7 8 7 6 6 6 6 6 7 8 7 5 4 5 5 4 5 7 8 8
2 0 2 3 3 4 4 2 2 1 3 2 1 2 1 4 5 5 3 2 4 7 8 8 9 9 9 7 6 6 4 4 4 4 3 4 5 5 3 5 5 6 6 7 7 6 5 6 6 6 7 7 7 8 10 10 9 9 9 8 8 7 7 6 6 6 5 3 3 3 5 7 8 7 8 8 8 7 8 8 7 7 7 7 7 6 6 5 6 5 5 5 6 6 6 7 7
2 1 2 4 4 3 2 2 1 0 1 5 3 4 3 7 3 3 1 4 6 7 9 6 4 6 5 6 5 4 3 2 1 1 2 2 1 1 2 2 4 3 3 4 5 5 5 5 6 7 7 6 6 7 9 10 9 8 8 9 9 7 6 6 6 7 6 4 5 4 4 5 6 5 5 6 6 6 6 7 6 6 6 6 6 6 6 6 6 6 7 8 7 7 6 6 8
5 3 6 4 3 2 2 1 1 1 1 4 2 7 2 4 4 6 6 5 6 7 2 2 3 5 4 5 5 4 4 4 4 4 4 3 1 1 2 3 3 3 2 3 3 4 4 5 5 6 7 6 7 8 7 9 8 7 8 8 8 8 6 6 5 5 7 6 7 7 6 5 5 5 6 6 6 6 6 6 5 6 6 7 6 5 6 7 7 7 7 7 7 8 7 8 9
5 2 3 6 5 2 1 1 2 1 3 0 4 1 0 6 4 2 1 0 0 1 1 4 4 3 4 4 4 4 4 3 4 3 4 4 2 1 1 3 4 4 3 3 3 4 4 5 5 5 5 5 5 6 6 7 7 6 5 6 7 7 7 6 6 6 5 5 6 7 7 6 6 6 6 5 6 6 6 5 5 6 6 6 7 6 6 7 7 7 7 6 6 7 7 7 7
1 4 7 7 2 2 0 1 1 3 5 1 1 2 2 9 8 5 4 3 2 3 1 5 5 5 5 5 4 4 3 3 4 4 3 4 4 4 4 4 4 5 5 5 5 5 5 5 5 6 6 5 6 5 6 5 6 6 6 6 6 7 7 7 6 5 4 5 4 4 3 4 3 2 3 5 4 6 6 6 6 6 5 4 4 5 5 5 5 5 6 6 7 7 7 8 8
2 7 7 5 3 2 2 2 2 1 1 3 0 1 2 4 6 11 14 14 3 3 3 3 5 5 4 4 3 1 2 2 2 2 2 3 4 5 5 4 4 4 4 5 5 5 4 5 5 6 6 5 5 6 6 6 6 5 5 5 5 6 6 6 6 6 4 4 3 3 2 2 1 1 1 2 4 4 4 4 4 4 5 5 5 5 5 5 5 6 6 7 8 8 8 10 10
6 2 6 4 4 4 4 4 5 5 2 1 3 2 6 2 4 1 5 4 5 2 2 1 1 2 2 1 1 2 3 3 3 2 3 4 3 3 4 4 4 4 5 5 4 4 4 5 5 6 6 5 6 6 5 6 6 5 5 4 4 4 5 5 5 6 5 3 2 2 2 2 2 3 4 2 1 1 1 1 2 3 3 4 5 5 5 5 5 6 5 6 6 6 7 8 8
2 1 3 1 4 1 4 1 1 3 1 1 1 5 3 5 1 3 2 2 2 2 0 0 2 3 2 1 3 3 3 4 3 3 3 4 4 4 4 4 4 4 4 4 4 4 4 5 5 5 6 5 6 5 5 5 5 5 5 4 3 3 4 4 4 5 5 4 3 3 3 4 3 1 1 0 1 3 3 3 0 0 0 1 2 3 3 4 4 5 5 4 5 3 4 5 6
5 4 3 3 1 8 5 1 0 0 2 5 4 4 7 4 7 9 7 5 3 1 1 2 4 4 3 2 3 3 4 4 3 3 4 4 4 3 4 5 4 4 4 4 4 4 4 5 5 7 6 5 5 5 4 4 4 5 4 4 3 4 4 4 5 4 4 2 0 1 2 3 3 3 3 3 3 3 3 4 3 1 2 2 2 2 3 3 4 4 4 4 5 5 6 6 6
7 0 6 2 1 3 4 3 1 0 3 3 5 6 3 0 6 3 0 4 4 4 5 6 5 4 3 4 4 4 4 3 4 4 4 4 4 4 4 4 5 5 5 5 4 3 4 4 6 7 6 6 5 5 4 4 4 4 4 4 4 4 4 3 3 3 3 2 1 1 1 0 1 2 2 2 2 2 1 1 1 2 3 2 2 2 3 3 4 4 4 4 5 5 5 5 6
2 6 2 6 1 2 1 2 2 1 2 2 2 5 3 7 5 0 0 2 5 5 5 4 4 5 5 4 3 4 4 3 4 4 4 4 4 4 4 5 5 5 5 5 5 4 4 4 7 7 6 5 5 4 3 4 5 3 3 3 4 4 4 3 1 0 3 3 3 2 1 0 2 3 2 2 2 2 2 2 2 2 2 2 2 2 3 3 1 3 4 4 3 2 3 4 4
0 2 2 2 1 0 4 5 2 5 3 1 5 3 3 5 5 7 6 6 6 5 3 3 4 5 5 5 5 5 4 3 3 4 4 5 5 5 5 5 5 5 5 5 5 5 5 4 5 6 6 6 6 5 4 4 5 5 5 4 3 3 3 4 4 3 3 3 3 3 2 1 1 3 3 3 3 3 2 1 2 2 2 3 3 3 3 3 3 2 1 2 4 4 5 5 5
1 2 4 0 0 1 2 2 3 3 2 4 2 3 4 4 5 6 8 6 4 7 5 4 4 3 3 5 6 5 4 3 3 3 4 5 5 5 5 5 5 5 5 5 5 6 5 5 5 6 7 7 6 6 5 4 5 5 7 7 6 6 5 4 4 3 4 4 4 4 4 4 5 4 4 4 4 3 3 2 3 3 3 3 2 3 3 3 3 3 3 3 4 4 4 4 4
7 10 11 14 10 5 4 5 0 1 3 3 4 7 1 1 2 3 4 4 4 4 7 5 4 4 4 4 4 5 5 3 3 3 4 5 5 5 5 5 5 5 5 5 5 5 5 5 5 5 6 5 5 5 5 5 4 5 5 6 6 5 5 5 5 4 5 6 5 5 4 5 4 3 4 4 4 3 4 4 4 3 4 4 4 3 4 4 4 4 4 3 4 4 4 4 4
Wind_Direction
306 295 268 274 286 268 308 246 281 222 249 256 152 213 110 91 108 112 101 161 100 61 49 72 70 46 8 54 68 76 29 58 28 227 116 149 189 131 104 118 125 123 119 123 124 123 115 113 113 110 106 101 97 93 89 88 84 77 67 81 84 91 95 96 92 94 91 88 84 82 81 79 71 77 78 70 74 74 74 74 70 68 68 68 72 70 69 68 70 70 70 72 71 70 65 64 62
306 319 298 260 261 347 266 195 264 270 221 250 83 79 124 95 162 112 159 163 93 110 108 78 65 63 348 55 114 131 51 59 66 82 93 111 118 109 116 126 133 125 125 129 134 128 119 116 114 112 108 104 101 99 95 90 84 77 77 81 80 85 93 96 97 96 95 90 85 80 80 76 72 74 77 71 70 72 71 71 69 69 70 71 69 69 70 71 71 71 71 73 73 71 71 70 71
316 308 309 260 261 213 298 310 260 274 210 213 71 101 125 138 153 144 95 88 104 115 109 92 79 96 134 171 58 32 104 93 97 99 107 134 140 123 143 136 125 124 130 139 130 123 125 120 118 116 111 109 105 104 101 93 86 80 71 82 84 84 93 93 93 98 97 93 89 86 76 70 72 71 72 68 61 74 78 72 72 72 70 67 69 75 75 72 71 70 71 72 73 75 75 75 76
288 277 270 325 302 180 284 225 245 261 277 108 106 169 145 106 70 80 88 97 103 123 124 131 158 13 355 53 71 98 99 78 96 123 125 162 123 143 140 126 122 128 131 129 127 124 120 127 120 119 117 113 110 104 102 98 90 86 84 75 80 82 93 100 100 95 95 95 91 87 81 81 78 74 73 68 66 64 66 69 72 77 80 79 73 69 70 71 72 73 71 71 72 75 76 78 78
276 269 246 310 317 220 240 234 237 239 328 340 102 163 138 102 108 99 99 108 118 127 151 166 108 31 75 38 17 58 80 106 107 122 115 106 134 139 142 129 126 123 131 129 119 115 128 126 121 121 119 116 113 109 104 100 95 86 79 83 80 81 89 97 99 97 98 97 93 87 86 84 83 77 70 70 72 75 75 74 69 64 66 78 76 76 76 74 72 73 73 72 72 73 77 77 62
256 271 230 115 256 9 351 297 276 282 19 354 122 130 117 113 109 113 115 112 114 149 95 179 10 175 111 44 354 91 262 133 135 118 108 146 140 132 136 130 123 134 130 114 111 118 130 125 122 123 120 117 115 113 108 104 98 91 83 86 83 82 88 97 99 98 101 100 95 92 88 80 75 73 69 72 71 74 76 76 76 72 73 77 79 78 78 77 75 75 75 73 73 75 77 70 56
327 330 211 190 268 106 260 253 256 200 335 38 62 130 96 107 115 114 107 88 35 42 351 171 112 137 112 118 81 45 0 101 136 113 107 135 128 129 159 126 128 131 131 117 112 120 130 126 126 121 120 121 117 114 112 105 99 92 90 89 85 89 90 95 99 101 103 98 94 90 85 82 75 72 70 74 78 76 80 81 84 82 76 76 77 75 74 75 75 72 73 74 74 75 75 69 56
144 28 185 173 202 142 245 262 270 85 312 31 32 63 107 115 130 124 137 133 160 169 197 311 154 334 77 176 101 98 59 55 87 104 118 131 122 140 170 129 129 128 124 111 111 119 131 126 121 122 123 122 120 116 112 107 102 93 92 93 96 96 96 95 96 100 101 93 92 89 85 83 82 76 72 72 87 83 81 86 83 80 80 77 76 75 74 75 77 78 76 76 75 74 76 73 57
261 114 292 54 252 167 269 248 201 126 127 106 66 48 99 135 141 130 162 157 130 174 170 202 121 204 180 87 78 109 62 105 107 118 128 129 131 156 149 135 125 126 106 102 112 125 126 125 122 124 124 124 123 120 116 113 105 100 94 92 93 90 90 94 100 99 96 92 92 90 87 85 83 79 76 74 70 88 94 83 80 78 75 75 75 75 74 76 77 78 79 79 78 77 77 71 59
261 173 226 208 225 198 220 263 239 70 100 85 129 100 118 133 142 141 151 118 147 127 166 181 119 338 127 98 121 143 142 112 124 121 132 132 139 161 147 136 120 121 109 118 125 131 127 124 122 123 125 125 126 124 121 118 113 108 105 98 94 98 100 103 99 99 96 98 97 96 95 90 85 83 79 74 73 80 78 76 75 74 74 75 75 74 73 74 77 80 81 83 83 82 80 71 56
263 171 275 226 265 243 192 243 122 147 105 99 73 130 95 162 139 148 154 123 137 124 92 127 120 216 153 81 66 37 128 123 132 133 141 136 149 153 149 122 130 124 121 128 124 124 129 126 120 122 126 126 125 126 125 123 122 118 113 108 100 93 105 110 105 100 98 96 97 97 92 91 92 86 81 73 58 69 89 82 79 80 80 78 76 75 76 76 77 79 79 81 85 85 82 72 56
296 195 161 196 245 224 198 227 131 94 118 124 105 131 143 152 150 151 137 129 152 119 160 191 172 186 139 126 128 153 134 147 132 139 140 138 154 155 130 114 130 121 122 126 125 134 134 129 124 124 124 126 125 124 127 127 123 122 118 117 112 99 93 108 106 103 104 103 101 92 86 93 95 94 84 64 49 42 72 89 85 82 79 76 75 76 75 75 76 80 82 83 85 84 78 69 62
270 301 186 288 234 242 336 51 87 115 108 186 141 148 194 141 174 181 124 125 175 141 168 203 7 348 119 79 128 135 149 156 136 143 134 146 144 130 112 120 137 116 123 134 134 138 134 148 133 138 132 127 128 129 128 125 123 123 122 119 115 103 96 85 92 110 96 88 84 77 73 71 70 76 76 66 53 47 61 71 76 80 79 78 77 75 74 75 76 80 81 81 82 79 76 68 60
242 268 321 231 273 276 146 43 103 116 186 115 114 134 184 148 192 171 124 147 164 183 12 134 264 314 87 109 146 158 151 149 142 135 140 140 138 132 122 116 141 127 129 138 136 138 143 149 143 144 142 140 134 130 126 128 127 121 117 112 108 103 97 87 79 81 83 82 81 78 73 67 68 71 75 69 59 54 62 73 75 79 80 79 76 74 74 75 78 82 83 82 81 78 70 68 61
277 318 265 232 284 267 304 122 167 185 85 118 139 141 164 63 316 16 117 155 60 81 218 46 45 6 182 197 164 176 154 147 144 136 133 140 130 141 117 129 126 120 131 151 141 145 154 147 147 145 158 154 144 141 135 130 126 121 114 113 111 107 97 95 92 84 89 88 89 87 82 79 78 80 75 68 63 59 60 63 69 77 81 79 78 76 77 77 79 82 82 80 80 77 72 66 59
304 352 256 265 264 207 277 266 103 173 141 123 173 134 125 88 20 108 58 27 94 31 141 123 29 29 45 33 137 138 142 138 142 137 147 136 132 128 110 128 162 130 140 175 145 152 149 154 142 153 167 161 156 150 142 132 128 124 118 113 112 110 107 101 99 94 94 94 99 102 98 93 91 92 84 76 70 66 64 69 67 71 79 82 80 81 78 79 80 80 81 81 77 75 70 59 49
330 191 297 249 264 174 201 202 124 203 117 123 161 151 143 157 88 61 243 328 141 164 82 58 76 79 50 63 106 125 128 133 134 146 144 129 133 134 133 150 172 141 148 189 153 168 161 145 146 154 173 159 163 147 140 138 132 119 111 114 116 115 112 108 105 104 99 104 109 123 133 121 117 120 107 91 79 76 75 76 79 76 77 78 79 78 80 77 76 77 75 79 84 84 76 62 44
71 213 238 243 247 185 174 199 132 132 125 148 159 172 142 134 148 88 155 119 51 107 133 79 68 61 87 97 107 117 126 136 150 157 147 140 148 149 163 180 160 159 159 190 174 165 169 150 150 155 182 155 151 140 144 136 146 139 129 130 121 118 118 122 124 127 123 116 143 158 179 151 149 153 122 122 102 88 80 86 86 85 79 72 73 71 68 70 73 72 73 92 114 128 116 89 66
166 234 200 253 258 310 131 69 79 150 143 153 154 186 168 158 151 165 148 170 176 145 195 139 106 98 82 102 118 124 135 144 156 165 155 156 164 165 168 170 172 160 172 185 198 161 175 164 154 167 187 147 140 142 142 139 156 151 148 147 134 134 143 153 154 148 152 146 192 198 212 159 139 103 115 104 109 98 99 98 99 101 96 92 87 87 79 72 69 70 76 116 160 171 155 131 127
227 254 250 242 306 59 43 70 60 73 131 143 146 181 234 135 141 124 196 176 176 199 184 174 158 146 148 140 141 142 150 154 164 165 165 169 176 167 170 172 176 175 174 180 185 175 168 177 169 164 174 147 145 146 149 149 170 163 157 154 149 146 161 189 159 172 159 157 207 220 202 113 100 107 112 119 114 111 104 104 111 109 114 116 118 106 103 104 100 83 34 309 279 261 253 183 150
193 191 211 273 204 98 13 69 58 51 124 134 148 141 145 148 119 152 201 199 186 215 202 180 184 158 153 159 152 156 159 165 172 173 174 175 186 167 176 173 178 174 171 175 175 184 172 178 169 167 165 155 155 153 160 160 178 160 160 149 158 151 164 195 168 180 166 162 205 223 130 114 123 131 134 148 150 137 134 139 139 141 145 152 146 150 145 168 159 144 171 253 259 239 236 186 151
356 225 80 346 353 66 58 52 25 36 66 125 122 144 172 105 110 184 185 209 197 205 210 181 183 152 150 162 158 159 168 173 178 177 182 176 183 176 178 167 173 179 168 181 182 178 177 182 171 173 161 161 163 157 162 163 169 157 160 155 162 155 166 185 153 184 159 159 206 180 126 124 130 142 154 173 189 152 155 170 176 173 167 173 192 189 161 163 176 166 170 208 235 249 243 127 164
242 254 262 34 357 94 24 53 342 340 89 118 139 172 100 137 179 198 204 223 126 33 51 74 51 153 159 155 151 165 169 181 185 188 182 182 184 188 185 167 170 176 173 183 178 180 176 186 173 171 166 166 175 160 165 153 165 164 157 165 162 160 162 166 161 177 159 167 199 191 131 150 161 151 160 193 206 152 170 183 190 178 166 163 191 201 164 179 175 177 185 205 218 158 41 24 30
229 268 110 41 44 66 31 68 335 13 58 84 82 123 119 153 213 177 220 142 103 72 58 44 80 112 127 144 163 168 176 182 190 191 190 189 185 186 189 168 169 165 162 180 183 178 177 188 174 170 170 167 177 174 166 149 166 161 159 160 168 156 154 167 172 168 163 167 203 190 163 158 190 151 175 186 197 157 181 181 192 153 157 154 203 183 137 114 311 249 194 189 75 72 108 27 342
215 243 99 105 79 97 80 90 42 36 53 320 53 103 142 165 229 78 230 187 133 111 96 86 104 124 137 146 165 173 178 184 188 191 198 196 188 188 201 180 166 166 171 183 183 178 177 187 181 172 169 171 173 178 176 155 166 178 140 152 168 148 151 163 170 166 159 162 202 195 182 174 184 161 165 172 180 178 181 171 165 151 157 176 167 137 128 139 222 257 207 111 142 196 175 164 233
217 252 88 113 88 101 126 91 84 54 77 3 72 181 68 64 268 250 232 221 144 127 104 113 121 142 148 160 168 171 178 184 184 187 195 193 185 186 199 202 179 169 172 178 178 182 169 183 190 177 169 176 174 180 184 168 167 174 155 154 164 140 153 159 169 167 157 158 197 213 188 200 186 164 162 168 169 192 161 164 150 164 169 149 127 141 150 162 206 228 175 189 192 205 173 192 188
285 133 102 100 122 109 332 108 115 127 95 195 138 185 75 25 56 272 211 198 133 133 134 142 139 167 168 162 173 176 177 183 186 183 182 191 191 189 192 202 206 181 164 174 177 175 169 175 189 179 176 173 173 175 180 180 164 171 161 157 153 157 165 159 166 173 159 161 171 208 204 206 231 177 162 166 171 166 153 159 178 176 156 158 149 177 169 183 201 189 186 185 182 187 209 202 160
69 115 95 86 104 84 131 92 123 148 101 215 299 101 85 70 60 237 53 135 149 147 155 162 166 160 179 176 172 179 183 185 182 175 186 187 194 188 190 192 203 199 167 176 174 171 167 177 185 185 182 174 171 172 172 186 174 170 163 159 160 166 167 172 167 179 173 165 186 190 194 200 239 240 161 170 158 157 159 164 194 167 178 173 158 176 165 185 194 192 159 154 201 183 205 184 164
137 152 118 144 131 138 169 158 166 240 89 198 279 85 296 141 226 223 191 166 161 160 173 171 184 184 171 187 174 176 184 178 176 184 190 190 187 189 192 187 189 198 194 173 172 171 171 175 180 189 186 182 176 176 174 184 173 169 163 161 163 166 176 178 174 174 171 175 194 187 176 191 235 235 195 158 153 154 163 172 189 180 179 166 167 167 150 169 200 96 84 49 342 343 331 250 176
149 244 185 131 162 231 187 90 115 154 99 199 126 255 233 216 227 207 156 154 160 170 200 183 179 192 194 181 177 175 185 175 177 188 187 184 184 188 195 189 186 191 191 181 171 175 175 168 172 181 189 191 186 181 174 181 181 169 166 160 166 167 175 184 176 168 176 184 180 184 181 211 226 224 206 159 147 145 164 170 182 178 178 158 150 137 141 162 187 162 172 157 235 234 243 246 196
166 201 252 186 133 225 153 152 145 168 256 155 228 200 272 272 229 154 156 149 159 183 206 194 186 186 195 193 175 177 188 189 182 182 191 186 182 184 192 189 187 186 181 185 185 179 175 170 167 177 182 191 179 194 186 177 182 173 173 167 164 166 174 183 187 174 177 180 170 176 176 218 242 238 210 167 169 165 168 174 181 182 175 150 141 148 157 190 197 200 184 177 204 214 217 223 209
223 133 242 255 163 51 146 100 162 165 239 222 172 271 252 276 100 106 131 164 174 193 193 200 194 195 188 188 180 178 190 188 190 185 189 191 182 185 185 191 185 185 185 187 186 178 179 176 169 168 175 185 181 193 205 181 178 182 175 176 166 168 175 183 189 185 176 160 167 173 174 193 244 247 247 197 173 178 178 175 187 182 171 157 161 164 171 194 203 207 205 178 197 217 204 234 220
238 170 151 201 203 164 188 270 200 25 135 222 207 225 258 138 159 121 117 193 172 226 217 196 197 194 190 183 185 191 192 187 193 194 190 189 190 183 184 189 186 185 183 184 183 180 182 179 170 168 173 182 182 186 200 208 186 182 186 182 174 170 175 178 178 183 184 170 167 175 180 174 207 238 245 234 201 195 183 171 183 186 168 166 175 174 180 198 192 199 216 203 186 207 206 223 239
222 190 219 193 202 141 206 44 276 180 188 191 238 239 246 186 192 172 191 183 184 221 242 229 201 196 191 182 184 192 196 191 193 196 197 188 190 185 180 186 182 179 183 185 184 181 184 180 175 177 171 179 178 180 191 200 207 196 191 178 174 167 174 173 179 182 192 184 170 178 179 182 194 201 201 210 217 209 189 177 185 178 166 170 180 179 184 188 203 187 212 220 205 215 218 212 232
170 164 244 265 196 192 167 167 199 150 235 212 191 234 261 256 177 196 195 203 185 207 216 237 224 197 196 191 194 198 195 197 200 193 195 192 186 187 180 178 180 178 182 185 180 180 182 179 170 178 168 175 180 177 184 193 199 206 196 182 185 171 170 171 178 186 188 190 187 180 181 186 194 197 198 196 195 201 200 198 196 185 170 176 176 185 181 187 199 199 189 226 215 207 211 219 213
177 175 190 186 185 223 183 49 121 164 164 224 203 208 232 248 254 199 189 194 191 199 212 224 232 220 205 204 207 207 210 210 201 189 189 189 186 181 181 173 178 177 177 182 179 176 181 181 171 176 180 175 178 176 173 184 187 194 199 208 198 187 166 173 180 188 185 192 201 196 189 190 193 198 195 193 192 195 201 201 200 182 174 172 179 180 196 194 193 198 214 199 222 234 227 242 266
193 167 188 204 177 203 75 107 119 352 154 216 222 238 249 247 228 231 182 197 201 200 196 207 222 216 210 210 210 214 212 213 201 190 183 183 184 182 179 169 176 177 177 179 182 179 181 183 172 181 184 176 178 181 179 179 184 189 198 201 205 192 181 170 181 186 190 194 194 201 204 195 191 192 194 186 195 198 204 201 192 188 179 181 186 197 196 195 192 193 200 190 208 224 247 222 246
348 177 182 202 165 165 21 141 207 260 131 239 215 240 249 252 257 253 242 169 204 199 201 207 208 211 211 210 219 218 220 201 183 197 187 174 178 176 171 171 170 176 188 180 185 186 182 183 180 180 180 184 183 186 182 183 187 189 186 193 190 187 180 181 182 182 186 190 194 198 204 201 196 191 189 188 190 194 202 203 194 196 186 194 198 197 197 195 192 196 188 209 201 211 231 188 202
309 27 158 167 180 95 101 68 102 168 81 276 303 235 244 246 248 245 236 243 220 196 197 203 200 209 212 210 213 218 209 210 194 196 182 173 169 173 171 176 181 183 185 186 187 184 186 189 188 178 182 185 186 184 181 188 183 182 178 182 178 183 182 181 185 180 172 180 192 198 197 202 200 197 184 188 190 196 200 202 202 194 190 187 190 201 200 201 195 196 193 196 203 214 221 200 188
36 271 43 195 155 135 239 282 138 208 175 301 32 330 284 284 270 256 241 229 233 222 207 206 197 206 208 208 203 205 207 205 202 190 186 185 179 178 174 178 182 180 184 191 187 187 189 193 192 187 181 184 187 186 184 183 179 175 175 167 178 170 186 183 179 180 182 181 191 192 201 200 204 202 190 182 192 194 194 201 202 194 189 184 186 194 198 206 202 205 203 206 183 209 210 238 199
243 281 317 112 148 76 111 176 163 120 330 102 332 317 284 239 248 249 239 229 232 223 215 220 219 209 205 209 212 200 201 201 203 196 191 187 187 189 185 187 180 185 187 187 187 188 191 192 192 190 183 183 186 184 180 170 163 170 174 176 168 185 156 180 173 187 176 185 183 191 200 196 202 204 195 185 186 190 194 199 204 198 183 185 179 190 201 210 208 206 199 199 197 208 234 228 225
212 226 151 347 159 106 90 124 127 131 267 221 158 337 296 229 217 230 238 209 224 221 207 217 217 214 196 203 215 220 221 202 190 194 191 189 189 190 189 182 185 195 197 195 189 191 186 187 188 189 188 182 183 184 179 170 170 169 168 173 173 180 181 181 192 194 192 182 191 182 192 193 196 193 188 190 187 192 201 204 208 202 187 178 185 199 208 206 212 206 204 198 207 211 223 236 236
156 239 169 156 86 112 125 149 160 154 196 265 90 167 263 340 340 251 215 183 213 224 202 225 220 219 211 220 220 216 213 231 248 226 164 169 182 175 186 187 191 193 205 195 193 187 185 182 186 188 189 186 179 177 178 174 173 176 179 183 181 184 180 202 182 181 187 199 173 180 188 190 197 199 200 195 194 197 206 209 204 195 188 187 187 194 205 210 211 209 197 196 209 203 188 231 236
227 263 351 128 109 116 156 151 161 224 123 24 357 156 229 298 279 311 41 153 208 226 225 226 225 220 215 216 218 219 223 219 210 214 223 218 203 177 183 192 188 193 186 181 192 189 185 184 182 187 185 182 180 171 179 182 179 179 177 181 182 187 190 189 185 187 181 180 194 188 179 188 190 195 198 204 207 200 200 200 194 195 200 208 193 198 205 210 202 197 190 203 208 193 193 216 233
200 250 324 101 126 144 144 142 158 168 73 302 243 274 328 246 265 217 188 248 247 237 233 229 221 214 208 191 185 181 157 144 147 170 198 208 220 231 205 180 186 169 170 176 186 190 185 179 176 176 180 178 182 174 176 183 181 178 177 174 178 190 177 188 180 185 191 184 184 185 150 161 184 184 185 190 196 191 188 192 192 195 199 203 192 197 206 203 202 201 199 203 208 211 205 219 229
250 221 60 78 64 62 121 181 126 13 120 258 217 197 204 279 249 248 229 217 242 236 234 245 221 178 149 127 122 124 112 105 118 163 196 209 199 189 176 122 107 118 127 146 160 166 174 168 169 170 180 175 177 180 174 180 179 171 174 178 176 180 171 176 160 177 180 181 204 201 187 166 159 178 188 190 194 197 196 200 203 198 198 202 194 200 201 203 206 213 214 214 211 215 207 213 228
129 131 87 56 58 65 11 53 94 69 296 241 190 191 140 298 261 195 171 217 210 238 248 72 68 80 90 116 133 135 153 174 190 202 203 207 177 151 121 138 140 102 94 106 136 159 176 175 175 179 184 174 174 178 173 178 178 176 177 177 173 173 173 165 160 168 175 180 191 193 181 188 178 187 193 205 203 200 204 195 197 205 201 203 205 202 211 209 210 215 220 218 213 210 212 216 222
125 121 127 89 4 26 38 354 42 131 271 227 317 327 69 189 290 268 191 256 10 105 141 140 124 145 140 145 150 150 155 183 193 187 205 161 118 256 133 189 176 150 143 176 175 175 179 186 178 181 190 177 172 175 175 175 176 177 170 169 171 169 168 171 173 185 184 181 175 177 179 176 183 186 195 196 197 184 183 190 199 209 212 207 208 207 212 213 214 211 217 216 223 222 224 225 230
81 116 114 111 166 69 337 80 344 213 211 241 351 338 352 248 232 289 267 291 185 193 158 151 141 141 158 148 145 167 172 189 186 188 176 163 175 188 193 211 169 160 178 188 181 177 175 181 181 176 192 175 166 166 173 169 166 176 170 168 171 167 163 164 175 176 187 169 159 137 135 166 173 158 158 159 178 178 168 175 185 199 212 220 221 215 221 214 206 208 213 219 221 219 215 219 230
187 150 148 125 128 147 199 212 191 241 320 285 309 277 271 261 281 230 250 258 225 173 97 132 141 149 145 153 156 169 211 186 160 159 175 190 177 172 187 169 157 164 173 174 171 169 171 174 181 172 188 171 158 159 168 166 166 169 166 161 161 159 164 162 172 172 168 149 149 153 151 150 160 238 279 204 198 167 164 181 179 192 202 207 209 214 212 208 206 211 214 220 223 225 220 222 228
206 134 148 173 149 155 189 168 186 204 175 293 278 73 232 122 254 284 231 233 165 164 139 141 161 170 168 193 246 241 242 173 138 177 188 175 154 144 142 150 152 152 151 153 159 164 160 170 170 168 169 161 149 156 156 160 159 155 158 152 141 143 157 156 155 150 143 132 128 146 173 176 180 206 217 242 210 161 178 181 195 200 201 200 197 206 208 211 217 222 223 228 238 236 232 233 236
195 177 76 100 224 137 147 171 122 136 125 57 315 204 211 186 238 251 240 180 135 130 83 347 284 261 210 202 231 230 198 146 154 153 120 112 117 120 118 117 127 128 129 133 147 146 153 163 165 157 146 136 132 132 138 144 145 135 136 139 134 121 124 119 98 104 117 129 147 156 171 173 172 199 253 200 201 171 201 218 200 298 278 243 231 223 212 210 212 226 234 230 248 245 249 245 247
218 104 194 194 97 97 103 38 326 70 51 259 168 302 296 270 306 270 249 205 198 82 206 219 241 223 187 209 230 208 143 134 147 131 132 133 123 123 134 133 125 125 130 143 142 149 158 153 140 125 118 111 116 124 130 128 126 117 126 120 100 101 105 106 105 108 109 92 50 156 158 170 170 184 223 215 217 194 186 182 184 228 302 307 302 273 232 219 222 230 237 234 234 220 225 243 248
98 153 216 155 170 121 129 207 54 272 190 259 143 211 283 339 292 299 292 155 194 201 214 223 200 181 200 227 218 164 148 147 133 101 94 121 138 130 110 122 137 142 144 131 135 143 131 137 124 123 124 127 124 125 137 136 123 117 118 109 95 95 102 89 81 93 88 108 270 326 39 46 196 187 137 93 83 84 80 117 193 219 225 240 260 289 285 244 213 222 228 237 241 235 238 242 234
120 184 195 132 191 263 263 140 216 193 216 258 244 211 240 184 233 338 328 234 214 208 193 161 179 186 208 222 180 120 114 114 116 126 134 132 128 128 121 96 84 83 89 101 91 78 81 90 112 126 136 135 133 132 126 115 115 116 116 112 107 102 95 88 75 146 145 171 175 185 207 58 43 44 51 54 62 40 18 357 22 8 13 354 354 340 334 327 223 206 221 234 254 249 262 271 262
309 94 57 11 100 163 134 188 188 118 222 174 294 161 242 208 214 208 222 206 182 184 179 207 200 201 206 183 152 143 131 106 106 114 110 102 94 95 103 106 99 97 96 101 107 93 79 76 104 126 124 128 143 148 145 146 138 135 130 123 121 117 130 159 173 204 199 165 146 113 88 58 61 55 46 52 58 54 40 30 12 27 5 359 356 338 351 338 349 330 262 251 256 244 251 255 264
216 104 155 183 107 236 109 297 166 163 187 188 234 298 274 253 210 195 222 222 145 152 161 170 158 155 138 147 148 146 132 120 105 106 107 107 107 92 86 97 104 98 95 91 93 99 101 87 88 101 124 138 145 153 149 146 138 136 144 154 161 163 153 132 120 111 93 79 72 72 67 72 54 42 56 49 48 39 38 42 31 18 12 353 356 339 334 343 348 341 333 291 277 266 259 269 265
186 169 180 180 151 125 151 259 84 141 152 224 198 242 282 270 298 165 157 165 150 150 157 169 160 145 134 133 134 140 135 130 127 111 106 105 109 109 105 105 108 102 97 98 104 98 87 89 95 100 102 104 106 97 102 103 98 104 102 101 92 86 90 85 83 71 71 67 65 66 66 56 59 38 79 64 52 44 38 30 29 16 16 11 8 6 352 8 356 357 346 346 339 332 318 307 306